Location: Ammerl�gen
(47.2167°N, 9.6000°E)
Time: 16:57:27
(UTC+00:00)

Envisat - Pass Details

Date: 07 October 2021
Orbit: 764 x 766 km, 98.2° (Epoch: 19 October)

Event Time Altitude Azimuth Distance (km) Brightness Sun altitude
Rises 03:10:45 0° 30° (NNE) 3,241 7.0 -23.9°
Reaches altitude 10° 03:14:04 10° 52° (NE) 2,309 6.4 -23.4°
Maximum altitude 03:17:01 15° 88° (E) 1,953 6.0 -22.9°
Drops below altitude 10° 03:19:58 10° 124° (SE) 2,298 6.0 -22.5°
Sets 03:23:14 0° 147° (SSE) 3,218 6.4 -21.9°
